User: anonymous   Login
Location: CNYAC Observatory
(43.2150°N, 74.9500°W)
Time: 22:19:23
(UTC-04:00)
Language:

Cosmos 1300 Rocket - Orbit

View from above orbital plane
View from above orbital plane
View from above satellite
View from above satellite

Ground track
Ground track

The orbit data is extracted from the following two-line orbital elements,

1 12786U 81082B   15088.17288521  .00000718  00000-0  82338-4 0  9993
2 12786 082.4918 011.9634 0019003 054.5158 305.7827 14.84407159814483
Epoch (UTC): 29 March 2015 04:08:57
Eccentricity: 0.0019003
inclination: 82.4918°
perigee height: 602 km
apogee height: 629 km
right ascension of ascending node: 11.9634°
argument of perigee: 54.5158°
revolutions per day: 14.84407159
mean anomaly at epoch: 305.7827°
orbit number at epoch: 81448

The dashed part of the orbit path shows where the satellite is in the earth's shadow,  

DLR